• In Belarus
  • List of Countries
  • For 7 days
  • Water Temperature
  • Satellite Maps
  • Weather Map
  • Weather Widgets
  • user-avatar
    Login

    Hourly Weather Havana

    Today, 19 May, Sunday

    Time Temperature Precipitation Wind Pressure Humidity
    00:00 +26°C° 0 mm 3 mps 760 mmHg 84%
    01:00 +26°C° 0 mm 3 mps 760 mmHg 85%
    02:00 +26°C° 0 mm 3 mps 760 mmHg 86%
    03:00 +26°C° 0 mm 3 mps 759 mmHg 86%
    04:00 +26°C° 0 mm 2 mps 759 mmHg 86%
    05:00 +26°C° 0 mm 2 mps 759 mmHg 85%
    06:00 +26°C° 0 mm 3 mps 760 mmHg 83%
    07:00 +27°C° 0 mm 2 mps 760 mmHg 80%
    08:00 +29°C° 0 mm 2 mps 760 mmHg 72%
    09:00 +30°C° 0 mm 2 mps 760 mmHg 64%
    10:00 +32°C° 0 mm 2 mps 760 mmHg 56%
    11:00 +34°C° 0 mm 3 mps 760 mmHg 53%
    12:00 +34°C° 0 mm 3 mps 760 mmHg 51%
    13:00 +35°C° 0 mm 3 mps 760 mmHg 48%
    14:00 +35°C° 2 mm 4 mps 760 mmHg 52%
    15:00 +34°C° 2 mm 4 mps 760 mmHg 56%
    16:00 +33°C° 2 mm 4 mps 760 mmHg 61%
    17:00 +32°C° 0.7 mm 4 mps 760 mmHg 66%
    18:00 +30°C° 0.7 mm 4 mps 760 mmHg 72%
    19:00 +29°C° 0.7 mm 4 mps 760 mmHg 77%
    20:00 +28°C° 0.5 mm 4 mps 760 mmHg 80%
    21:00 +28°C° 0.5 mm 4 mps 760 mmHg 82%
    22:00 +27°C° 0.5 mm 3 mps 761 mmHg 85%
    23:00 +27°C° 0 mm 3 mps 760 mmHg 86%

    Tomorrow, 20 May, Monday

    Time Temperature Precipitation Wind Pressure Humidity
    00:00 +27°C° 0 mm 3 mps 760 mmHg 87%
    01:00 +26°C° 0 mm 3 mps 760 mmHg 88%
    02:00 +26°C° 0 mm 3 mps 760 mmHg 88%
    03:00 +26°C° 0 mm 3 mps 760 mmHg 89%
    04:00 +26°C° 0 mm 3 mps 760 mmHg 89%
    05:00 +26°C° 0 mm 3 mps 760 mmHg 87%
    06:00 +27°C° 0 mm 3 mps 760 mmHg 86%
    07:00 +27°C° 0 mm 3 mps 760 mmHg 84%
    08:00 +28°C° 0 mm 3 mps 760 mmHg 76%
    09:00 +30°C° 0 mm 3 mps 761 mmHg 68%
    10:00 +33°C° 0 mm 3 mps 761 mmHg 59%
    11:00 +33°C° 0 mm 4 mps 761 mmHg 57%
    12:00 +34°C° 0 mm 4 mps 761 mmHg 54%
    13:00 +35°C° 0 mm 5 mps 761 mmHg 51%
    14:00 +35°C° 0.1 mm 5 mps 760 mmHg 53%
    15:00 +34°C° 0.1 mm 5 mps 759 mmHg 55%
    16:00 +34°C° 0.1 mm 6 mps 759 mmHg 57%
    17:00 +33°C° 0 mm 5 mps 759 mmHg 62%
    18:00 +30°C° 0 mm 5 mps 759 mmHg 67%
    19:00 +29°C° 0 mm 5 mps 759 mmHg 73%
    20:00 +29°C° 0 mm 4 mps 760 mmHg 75%
    21:00 +28°C° 0 mm 4 mps 760 mmHg 78%
    22:00 +27°C° 0 mm 4 mps 760 mmHg 81%
    23:00 +27°C° 0 mm 4 mps 760 mmHg 81%

    Day after tomorrow, 21 May, Tuesday

    Time Temperature Precipitation Wind Pressure Humidity
    00:00 +27°C° 0 mm 4 mps 760 mmHg 82%
    01:00 +26°C° 0 mm 3 mps 760 mmHg 82%
    02:00 +26°C° 0 mm 3 mps 759 mmHg 83%
    03:00 +26°C° 0 mm 3 mps 759 mmHg 84%
    04:00 +26°C° 0 mm 3 mps 759 mmHg 85%
    05:00 +26°C° 0 mm 3 mps 759 mmHg 84%
    06:00 +26°C° 0 mm 3 mps 759 mmHg 83%
    07:00 +27°C° 0 mm 3 mps 759 mmHg 82%
    08:00 +28°C° 0 mm 3 mps 760 mmHg 74%
    09:00 +30°C° 0 mm 3 mps 760 mmHg 65%
    10:00 +33°C° 0 mm 3 mps 760 mmHg 57%
    11:00 +33°C° 0 mm 3 mps 760 mmHg 53%
    12:00 +34°C° 0 mm 3 mps 760 mmHg 49%
    13:00 +35°C° 0 mm 3 mps 760 mmHg 45%
    14:00 +35°C° 0 mm 4 mps 759 mmHg 47%
    15:00 +35°C° 0 mm 4 mps 758 mmHg 48%
    16:00 +35°C° 0 mm 5 mps 758 mmHg 50%
    17:00 +33°C° 0 mm 5 mps 758 mmHg 56%
    18:00 +32°C° 0 mm 5 mps 758 mmHg 62%
    19:00 +30°C° 0 mm 5 mps 758 mmHg 69%
    20:00 +29°C° 0 mm 5 mps 759 mmHg 71%
    21:00 +28°C° 0 mm 5 mps 760 mmHg 73%
    22:00 +28°C° 0 mm 4 mps 760 mmHg 75%
    23:00 +28°C° 0 mm 4 mps 760 mmHg 75%

    22 May, Wednesday

    Time Temperature Precipitation Wind Pressure Humidity
    00:00 +27°C° 0 mm 4 mps 760 mmHg 76%
    01:00 +27°C° 0 mm 4 mps 760 mmHg 76%
    02:00 +27°C° 0 mm 4 mps 760 mmHg 77%
    03:00 +26°C° 0 mm 4 mps 759 mmHg 78%
    04:00 +26°C° 0 mm 4 mps 759 mmHg 78%
    05:00 +27°C° 0 mm 4 mps 760 mmHg 78%
    06:00 +27°C° 0 mm 4 mps 760 mmHg 77%
    07:00 +27°C° 0 mm 4 mps 760 mmHg 77%
    08:00 +29°C° 0 mm 4 mps 761 mmHg 69%
    09:00 +32°C° 0 mm 4 mps 761 mmHg 62%
    10:00 +33°C° 0 mm 4 mps 761 mmHg 55%
    11:00 +34°C° 0 mm 4 mps 761 mmHg 51%
    12:00 +35°C° 0 mm 4 mps 761 mmHg 47%
    13:00 +36°C° 0 mm 5 mps 761 mmHg 43%
    14:00 +36°C° 0 mm 5 mps 760 mmHg 45%
    15:00 +35°C° 0 mm 6 mps 760 mmHg 47%
    16:00 +35°C° 0 mm 7 mps 760 mmHg 49%
    17:00 +33°C° 0 mm 7 mps 760 mmHg 56%
    18:00 +32°C° 0 mm 7 mps 760 mmHg 64%
    19:00 +29°C° 0 mm 7 mps 760 mmHg 71%
    20:00 +29°C° 0 mm 7 mps 761 mmHg 73%
    21:00 +28°C° 0 mm 7 mps 761 mmHg 75%
    22:00 +28°C° 0 mm 7 mps 762 mmHg 78%
    23:00 +28°C° 0 mm 6 mps 762 mmHg 78%

    23 May, Thursday

    Time Temperature Precipitation Wind Pressure Humidity
    00:00 +28°C° 0 mm 6 mps 762 mmHg 79%
    01:00 +27°C° 0 mm 5 mps 762 mmHg 79%
    02:00 +27°C° 0 mm 5 mps 761 mmHg 81%
    03:00 +27°C° 0 mm 5 mps 761 mmHg 83%
    04:00 +27°C° 0 mm 5 mps 761 mmHg 85%
    05:00 +27°C° 0 mm 5 mps 761 mmHg 83%
    06:00 +27°C° 0 mm 5 mps 761 mmHg 81%
    07:00 +28°C° 0 mm 6 mps 762 mmHg 79%
    08:00 +29°C° 0 mm 6 mps 762 mmHg 72%
    09:00 +32°C° 0 mm 6 mps 762 mmHg 65%
    10:00 +33°C° 0 mm 7 mps 763 mmHg 58%
    11:00 +34°C° 0 mm 7 mps 762 mmHg 56%
    12:00 +35°C° 0 mm 8 mps 762 mmHg 54%
    13:00 +35°C° 0 mm 8 mps 762 mmHg 52%
    14:00 +35°C° 0 mm 8 mps 761 mmHg 53%
    15:00 +34°C° 0 mm 8 mps 761 mmHg 53%
    16:00 +34°C° 0 mm 8 mps 761 mmHg 54%
    17:00 +32°C° 0 mm 8 mps 761 mmHg 60%
    18:00 +31°C° 0 mm 8 mps 761 mmHg 66%
    19:00 +28°C° 0 mm 8 mps 761 mmHg 72%
    20:00 +28°C° 0 mm 7 mps 762 mmHg 72%
    21:00 +28°C° 0 mm 7 mps 762 mmHg 72%
    22:00 +27°C° 0 mm 6 mps 762 mmHg 72%
    23:00 +27°C° 0 mm 6 mps 762 mmHg 74%

    24 May, Friday

    Time Temperature Precipitation Wind Pressure Humidity
    00:00 +27°C° 0 mm 5 mps 762 mmHg 75%
    01:00 +26°C° 0 mm 5 mps 762 mmHg 76%
    02:00 +26°C° 0 mm 4 mps 761 mmHg 77%
    03:00 +26°C° 0 mm 4 mps 761 mmHg 78%
    04:00 +26°C° 0 mm 4 mps 761 mmHg 79%
    05:00 +27°C° 0 mm 4 mps 761 mmHg 78%
    06:00 +27°C° 0 mm 5 mps 762 mmHg 77%
    07:00 +28°C° 0 mm 5 mps 762 mmHg 77%
    08:00 +29°C° 0.1 mm 6 mps 762 mmHg 72%
    09:00 +32°C° 0.1 mm 6 mps 762 mmHg 67%
    10:00 +33°C° 0.1 mm 7 mps 762 mmHg 62%
    11:00 +34°C° 0.1 mm 7 mps 762 mmHg 60%
    12:00 +34°C° 0.1 mm 8 mps 762 mmHg 59%
    13:00 +34°C° 0.1 mm 9 mps 762 mmHg 58%
    14:00 +34°C° 0.1 mm 9 mps 761 mmHg 60%
    15:00 +33°C° 0.1 mm 9 mps 761 mmHg 61%
    16:00 +33°C° 0.1 mm 9 mps 760 mmHg 63%
    17:00 +32°C° 0 mm 9 mps 761 mmHg 66%
    18:00 +29°C° 0 mm 8 mps 761 mmHg 69%
    19:00 +28°C° 0 mm 7 mps 761 mmHg 72%
    20:00 +28°C° 0 mm 7 mps 761 mmHg 73%
    21:00 +27°C° 0 mm 7 mps 762 mmHg 75%
    22:00 +27°C° 0 mm 6 mps 762 mmHg 76%
    23:00 +26°C° 0 mm 6 mps 762 mmHg 77%
    Show more